sat.trackr.live / text

‹ back to catalog

APRIZESAT 6

NORAD 37793 · 2011-044F

PAYLOAD ACTIVE UNKNOWN

§ Identity

Operator
Country
US
Launch date
2011-08-17
Launch site
DLS
Launch vehicle
Mass (kg)
RCS (m²)
0.17

Purposes: tech_demo

External: N2YO · Heavens-Above · Gunter

§ Orbital elements

Epoch: 2026-09-19T12:56:24.211968Z

Period
97.49 min
Inclination
98.2283°
Eccentricity
0.0043767
Mean motion
14.77025845 rev/d
Perigee alt
608.0 km
Apogee alt
669.4 km
Semi-major
7,016.9 km
B*
6.0662e-5
RAAN
174.9314°
Arg perigee
142.5206°
Mean anomaly
31.9123°
Rev number
81,107

§ Raw data

APRIZESAT 61 37793U 11044F   26262.53916912  .00000378  00000+0  60662-4 0  99942 37793  98.2283 174.9314 0043767 142.5206  31.9123 14.77025845811078

JSON: /api/v1/satellites/37793 · /tle

For live sub-satellite position, see the globe view (requires WebGL).

§ Visibility from observer

Set your observer location to see the next 7 days of passes ≥ 10°. The values pass through the URL so the page stays shareable.

No JS? Fill the form by hand. The geolocation button needs JavaScript.

§ Radio — SatNOGS DB

ModeDescriptionDownlinkUplink
GMSK Store and dump 400.591 MHz

1 transmitter · refreshed weekly from db.satnogs.org